Tillbaka till svenska Fidonet
English   Information   Debug  
FILM   0/18
FNEWS_PUBLISH   4758
FN_SYSOP   42037
FN_SYSOP_OLD1   71952
FTP_FIDO   0/2
FTSC_PUBLIC   0/13899
FUNNY   0/4886
GENEALOGY.EUR   0/71
GET_INFO   105
GOLDED   0/408
HAM   0/16395
HOLYSMOKE   0/6791
HOT_SITES   0/1
HTMLEDIT   0/71
HUB203   466
HUB_100   264
HUB_400   39
HUMOR   0/29
IC   0/2851
INTERNET   0/424
INTERUSER   0/3
IP_CONNECT   719
JAMNNTPD   0/233
JAMTLAND   0/47
KATTY_KORNER   0/41
LAN   0/16
LINUX-USER   0/19
LINUXHELP   0/1155
LINUX   0/22267
LINUX_BBS   0/957
mail   18.68
mail_fore_ok   249
MENSA   0/341
MODERATOR   0/102
MONTE   0/992
MOSCOW_OKLAHOMA   0/1245
MUFFIN   0/783
MUSIC   0/321
N203_STAT   938
N203_SYSCHAT   313
NET203   321
NET204   69
NET_DEV   0/10
NORD.ADMIN   0/101
NORD.CHAT   0/2572
NORD.FIDONET   189
NORD.HARDWARE   0/28
NORD.KULTUR   0/114
NORD.PROG   0/32
NORD.SOFTWARE   0/88
NORD.TEKNIK   0/58
NORD   0/453
OCCULT_CHAT   0/93
OS2BBS   0/787
OS2DOSBBS   0/580
OS2HW   0/42
OS2INET   0/37
OS2LAN   0/134
OS2PROG   0/36
OS2REXX   0/113
OS2USER-L   207
OS2   0/4806
OSDEBATE   0/18996
PASCAL   0/490
PERL   0/457
PHP   0/45
POINTS   0/405
POLITICS   0/29554
POL_INC   2875/14731
PSION   103
R20_ADMIN   1132
R20_AMATORRADIO   0/2
R20_BEST_OF_FIDONET   14
R20_CHAT   0/893
R20_DEPP   0/3
R20_DEV   399
R20_ECHO2   1670
R20_ECHOPRES   0/35
R20_ESTAT   0/719
R20_FIDONETPROG...
...RAM.MYPOINT
  0/2
R20_FIDONETPROGRAM   0/22
R20_FIDONET   0/248
R20_FILEFIND   0/24
R20_FILEFOUND   0/22
R20_HIFI   0/3
R20_INFO2   3560
R20_INTERNET   0/12940
R20_INTRESSE   0/60
R20_INTR_KOM   0/99
R20_KANDIDAT.CHAT   42
R20_KANDIDAT   28
R20_KOM_DEV   112
R20_KONTROLL   0/13360
R20_KORSET   0/18
R20_LOKALTRAFIK   0/24
R20_MODERATOR   0/1852
R20_NC   76
R20_NET200   245
R20_NETWORK.OTH...
...ERNETS
  0/13
R20_OPERATIVSYS...
...TEM.LINUX
  0/44
R20_PROGRAMVAROR   0/1
R20_REC2NEC   534
R20_SFOSM   0/341
R20_SF   0/108
R20_SPRAK.ENGLISH   0/1
R20_SQUISH   107
R20_TEST   2
R20_WORST_OF_FIDONET   20
RAR   0/9
RA_MULTI   106
RA_UTIL   0/162
REGCON.EUR   0/2066
REGCON   0/13
SCIENCE   0/1206
SF   0/239
SHAREWARE_SUPPORT   0/5146
SHAREWRE   0/14
SIMPSONS   0/169
STATS_OLD1   0/2539.065
STATS_OLD2   0/2530
STATS_OLD3   0/2395.095
STATS_OLD4   264/1692.25
SURVIVOR   0/495
SYSOPS_CORNER   0/3
SYSOP   0/84
TAGLINES   0/112
TEAMOS2   0/4530
TECH   0/2617
TEST.444   0/105
TRAPDOOR   0/19
TREK   0/755
TUB   0/290
UFO   0/40
UNIX   0/1316
USA_EURLINK   0/102
USR_MODEMS   0/1
VATICAN   0/2740
VIETNAM_VETS   0/14
VIRUS   0/378
VIRUS_INFO   0/201
VISUAL_BASIC   0/473
WHITEHOUSE   0/5187
WIN2000   0/101
WIN32   0/30
WIN95   0/4291
WIN95_OLD1   31505/70272
WINDOWS   0/1517
WWB_SYSOP   0/419
WWB_TECH   0/810
ZCC-PUBLIC   0/1
ZEC   4

 
4DOS   0/134
ABORTION   0/7
ALASKA_CHAT   0/506
ALLFIX_FILE   0/1313
ALLFIX_FILE_OLD1   0/7997
ALT_DOS   0/152
AMATEUR_RADIO   0/1039
AMIGASALE   0/14
AMIGA   0/331
AMIGA_INT   0/1
AMIGA_PROG   0/20
AMIGA_SYSOP   0/26
ANIME   0/15
ARGUS   0/924
ASCII_ART   0/340
ASIAN_LINK   0/651
ASTRONOMY   0/417
AUDIO   0/92
AUTOMOBILE_RACING   0/105
BABYLON5   0/17862
BAG   135
BATPOWER   0/361
BBBS.ENGLISH   0/382
BBSLAW   0/109
BBS_ADS   0/5290
BBS_INTERNET   0/507
BIBLE   0/3563
BINKD   0/1119
BINKLEY   0/215
BLUEWAVE   0/2173
CABLE_MODEMS   0/25
CBM   0/46
CDRECORD   0/66
CDROM   0/20
CLASSIC_COMPUTER   0/378
COMICS   0/15
CONSPRCY   0/899
COOKING   39908
COOKING_OLD1   0/24719
COOKING_OLD2   0/40862
COOKING_OLD3   0/37489
COOKING_OLD4   0/35496
COOKING_OLD5   9370
C_ECHO   0/189
C_PLUSPLUS   0/31
DIRTY_DOZEN   0/201
DOORGAMES   0/2155
DOS_INTERNET   0/196
duplikat   6102
ECHOLIST   0/18295
EC_SUPPORT   0/318
ELECTRONICS   0/359
ELEKTRONIK.GER   1534
ENET.LINGUISTIC   0/13
ENET.POLITICS   0/4
ENET.SOFT   0/11701
ENET.SYSOP   34210
ENET.TALKS   0/32
ENGLISH_TUTOR   0/2000
EVOLUTION   0/1335
FDECHO   0/217
FDN_ANNOUNCE   2082/7068
FIDONEWS   24756
FIDONEWS_OLD1   28769/49742
FIDONEWS_OLD2   0/35949
FIDONEWS_OLD3   0/30874
FIDONEWS_OLD4   32734/37224
FIDO_SYSOP   12913
FIDO_UTIL   0/180
FILEFIND   0/209
FILEGATE   0/212
Möte HAM, 16395 texter
 lista första sista föregående nästa
Text 4992, 965 rader
Skriven 2011-12-29 22:31:06 av Amsat List (1:323/120.0)
Ärende: [keps] orb11363.amsa
============================
[keps] orb11363.amsa

Sender: keps-bounces@amsat.org
Return-Path: <keps-bounces@amsat.org>
X-Rcpt: craig.healy@chowda.com
X-UIDL: 1325214541.1631

SB KEPS @ AMSAT  $ORB11363.O
Orbital Elements  11363.OSCAR

HR AMSAT ORBITAL ELEMENTS FOR OSCAR SATELLITES
FROM WA5QGD FORT WORTH,TX December 29, 2011
Send Subscribe/unsubscribe to KEPS at http://www.amsat.org/mailman/listinfo/kep
BID: ORB11363.O
TO ALL RADIO AMATEURS BT

Satellite: AO-07
Catalog number: 07530
Epoch time:      11362.96224543
Element set:    0267
Inclination:      101.3969 deg
RA of node:       001.8360 deg
Eccentricity:    0.0011823
Arg of perigee:   258.6089 deg
Mean anomaly:     101.3658 deg
Mean motion:   12.53586741 rev/day
Decay rate:       -2.7e-07 rev/day^2
Epoch rev:           69859
Checksum:              309

Satellite: FO-29
Catalog number: 24278
Epoch time:      11362.84328549
Element set:    0754
Inclination:      098.5744 deg
RA of node:       121.0279 deg
Eccentricity:    0.0351176
Arg of perigee:   112.9206 deg
Mean anomaly:     250.9388 deg
Mean motion:   13.52974958 rev/day
Decay rate:        3.0e-08 rev/day^2
Epoch rev:           75878
Checksum:              347

Satellite: SO-33
Catalog number: 25509
Epoch time:      11362.72650248
Element set:    0132
Inclination:      031.4302 deg
RA of node:       223.8999 deg
Eccentricity:    0.0353080
Arg of perigee:   143.2147 deg
Mean anomaly:     219.3340 deg
Mean motion:   14.28632236 rev/day
Decay rate:       6.56e-06 rev/day^2
Epoch rev:           68811
Checksum:              286

Satellite: RS-22
Catalog number: 27939
Epoch time:      11363.73806406
Element set:     943
Inclination:      097.8228 deg
RA of node:       208.1649 deg
Eccentricity:    0.0014565
Arg of perigee:   085.9157 deg
Mean anomaly:     274.3715 deg
Mean motion:   14.63847021 rev/day
Decay rate:       6.67e-06 rev/day^2
Epoch rev:           44094
Checksum:              335

Satellite: VO-52
Catalog number: 28650
Epoch time:      11362.64827264
Element set:    0986
Inclination:      097.6191 deg
RA of node:       036.8555 deg
Eccentricity:    0.0025491
Arg of perigee:   243.6545 deg
Mean anomaly:     116.2045 deg
Mean motion:   14.82568641 rev/day
Decay rate:       9.12e-06 rev/day^2
Epoch rev:           35955
Checksum:              331

Satellite: SO-67
Catalog number: 35870
Epoch time:      11363.76300387
Element set:     539
Inclination:      097.2560 deg
RA of node:       040.4630 deg
Eccentricity:    0.0003683
Arg of perigee:   063.7322 deg
Mean anomaly:     039.3255 deg
Mean motion:   15.22411250 rev/day
Decay rate:      4.442e-05 rev/day^2
Epoch rev:           12667
Checksum:              285

Satellite: HO-68
Catalog number: 36122
Epoch time:      11363.27461342
Element set:      55
Inclination:      100.3901 deg
RA of node:       060.8988 deg
Eccentricity:    0.0007593
Arg of perigee:   137.8614 deg
Mean anomaly:     222.3083 deg
Mean motion:   13.16291958 rev/day
Decay rate:       -4.4e-07 rev/day^2
Epoch rev:            9790
Checksum:              298

/EX
SB KEPS @ AMSAT  $ORB11363.D
Orbital Elements  11363.MICROS

HR AMSAT ORBITAL ELEMENTS FOR THE MICROSATS
FROM WA5QGD FORT WORTH,TX December 29, 2011
Send Subscribe/unsubscribe to KEPS at http://www.amsat.org/mailman/listinfo/kep
BID: ORB11363.D
TO ALL RADIO AMATEURS BT

Satellite: UO-11
Catalog number: 14781
Epoch time:      11363.72048500
Element set:     746
Inclination:      097.9801 deg
RA of node:       059.5437 deg
Eccentricity:    0.0008177
Arg of perigee:   222.4485 deg
Mean anomaly:     137.6094 deg
Mean motion:   14.80253873 rev/day
Decay rate:       5.42e-06 rev/day^2
Epoch rev:           49471
Checksum:              314

Satellite: AO-16
Catalog number: 20439
Epoch time:      11362.90326226
Element set:    0369
Inclination:      098.4101 deg
RA of node:       306.2614 deg
Eccentricity:    0.0010400
Arg of perigee:   310.7889 deg
Mean anomaly:     049.2391 deg
Mean motion:   14.32000695 rev/day
Decay rate:       1.44e-06 rev/day^2
Epoch rev:           14548
Checksum:              271

Satellite: LO-19
Catalog number: 20442
Epoch time:      11363.86065335
Element set:     283
Inclination:      098.3749 deg
RA of node:       310.8071 deg
Eccentricity:    0.0010983
Arg of perigee:   298.6353 deg
Mean anomaly:     061.3728 deg
Mean motion:   14.32222825 rev/day
Decay rate:       1.46e-06 rev/day^2
Epoch rev:           14580
Checksum:              299

Satellite: AO-27
Catalog number: 22825
Epoch time:      11362.82231503
Element set:    0996
Inclination:      098.5559 deg
RA of node:       303.4842 deg
Eccentricity:    0.0009192
Arg of perigee:   066.0059 deg
Mean anomaly:     294.2102 deg
Mean motion:   14.29414901 rev/day
Decay rate:        3.3e-07 rev/day^2
Epoch rev:           95199
Checksum:              306

Satellite: IO-26
Catalog number: 22826
Epoch time:      11363.83552550
Element set:     742
Inclination:      098.5501 deg
RA of node:       304.8954 deg
Eccentricity:    0.0009800
Arg of perigee:   057.0192 deg
Mean anomaly:     303.1935 deg
Mean motion:   14.29684809 rev/day
Decay rate:       1.37e-06 rev/day^2
Epoch rev:           95226
Checksum:              310

Satellite: GO-32
Catalog number: 25397
Epoch time:      11363.84698034
Element set:     665
Inclination:      098.3444 deg
RA of node:       346.1207 deg
Eccentricity:    0.0002195
Arg of perigee:   074.1535 deg
Mean anomaly:     285.9886 deg
Mean motion:   14.23249199 rev/day
Decay rate:        8.1e-07 rev/day^2
Epoch rev:           69979
Checksum:              351

